This is the latest recevied weather packets stored in our database for station/object KJ5BMY-13. If no packets are shown the sender has not sent any weather packets the latest 10 day(s).
| Time | Temp. | Humidity | Pressure | Rain* | Wind** | Luminosity | Snow |
|---|---|---|---|---|---|---|---|
| 1778009749 | 31.11° C | 62% | 1006.5 hPa | 0 mm | - | - | - |
| 1778009446 | 31.11° C | 63% | 1006.8 hPa | 0 mm | - | - | - |
| 1778009144 | 31.11° C | 63% | 1006.6 hPa | 0 mm | - | - | - |
| 1778008842 | 31.11° C | 63% | 1006.9 hPa | 0 mm | - | - | - |
| 1778008540 | 30.56° C | 64% | 1006.7 hPa | 0 mm | - | - | - |
| 1778008237 | 30° C | 65% | 1007 hPa | 0 mm | - | - | - |
| 1778007932 | 29.44° C | 65% | 1006.9 hPa | 0 mm | - | - | - |
| 1778007325 | 29.44° C | 65% | 1007 hPa | 0 mm | - | - | - |
| 1778006112 | 29.44° C | 66% | 1007.1 hPa | 0 mm | - | - | - |
| 1778005809 | 29.44° C | 66% | 1007.1 hPa | 0 mm | - | - | - |
| 1778005506 | 28.89° C | 67% | 1007.2 hPa | 0 mm | - | - | - |
| 1778004899 | 28.89° C | 66% | 1007.3 hPa | 0 mm | - | - | - |
| 1778004596 | 28.89° C | 66% | 1007.2 hPa | 0 mm | - | - | - |
| 1778004292 | 28.89° C | 66% | 1007.1 hPa | 0 mm | - | - | - |
| 1778003685 | 28.89° C | 66% | 1007.2 hPa | 0 mm | - | - | - |
| 1778002775 | 28.33° C | 67% | 1007.2 hPa | 0 mm | - | - | - |
| 1778002472 | 28.89° C | 65% | 1007.3 hPa | 0 mm | - | - | - |
| 1778002169 | 28.89° C | 67% | 1007.3 hPa | 0 mm | - | - | - |
| 1778001867 | 28.33° C | 67% | 1007.4 hPa | 0 mm | - | - | - |
| 1778001566 | 27.78° C | 68% | 1007.2 hPa | 0 mm | - | - | - |
| 1778001264 | 27.78° C | 68% | 1007.6 hPa | 0 mm | - | - | - |
| 1778000960 | 27.78° C | 69% | 1007.3 hPa | 0 mm | - | - | - |
| 1778000657 | 27.78° C | 68% | 1007.5 hPa | 0 mm | - | - | - |
| 1778000352 | 27.78° C | 68% | 1007.6 hPa | 0 mm | - | - | - |
| 1777999139 | 27.78° C | 69% | 1007.4 hPa | 0 mm | - | - | - |
* Rain latest hour (hover to see other rain measurements)
** Current wind speed in m/s (hover to see current wind gust speed)